Terminal Aerodrome Forecast
Issued by NWS

Home | Current Version | Previous Version | Text Only | Print | Product List | Glossary On
Versions: 1 2 3 4 5 6 7 8 9 10 11 12
779
FTUS44 KSJT 072336
TAFBBD
TAF
KBBD 072336Z 0800/0824 35010KT P6SM SCT250
     FM081700 33013G20KT P6SM FEW250
      AMD NOT SKED=

USA.gov is the U.S. government's official web portal to all federal, state and local government web resources and services.